[[{"header":{"parameterUnit":"m.s-1","parameterCategory":1,"la1":30.2991,"la2":30.254,"lo1":-89.0895,"lo2":-89.0444,"dy":0.0017,"dx":0.0017,"nx":28,"ny":28,"refTime":"2025-08-04T03:00:00:Z","depth":0,"parameterNumber":2,"parameterNumberName":"U-component_of_WINDS"},"data":[0,0,0,0,0,0,0,0,0,0,0,0,0,0,0,0,0,0,0,0,0,0,0,0,0,0,0,0,0,0,0,0,0,0,0,0,0,0,0,0,0,0,0,0,0,0,0,0,0,0,0,0,0,0,0,0,0,0,-3.304,-3.304,0,-3.302,-3.302,-3.302,-3.2953,-3.2951,-3.295,-3.2948,-3.2928,-3.2929,-3.293,0,0,0,0,0,0,0,0,0,0,0,0,0,-3.3019,-3.3019,-3.304,-3.304,-3.304,-3.302,-3.302,-3.302,-3.2953,-3.2951,-3.2949,-3.2948,-3.2928,-3.2929,-3.293,0,0,0,0,0,0,0,0,0,0,0,0,0,-3.3016,-3.302,-3.304,-3.3004,-3.3,-3.302,-3.302,-3.302,-3.2953,-3.2951,-3.2949,-3.2947,-3.2928,-3.2929,-3.293,-3.2984,0,0,-3.2934,-3.2935,0,0,0,0,0,0,0,0,-3.3017,-3.3017,-3.3009,-3.3006,-3.3003,-3.2987,-3.3005,-3.3008,-3.2954,-3.2971,-3.2948,-3.2946,-3.295,-3.2949,-3.295,-3.2983,-3.2982,-3.2934,-3.2935,-3.2936,-3.2936,0,0,0,0,0,0,0,-3.3017,-3.3018,-3.3032,-3.3009,-3.3005,-3.2988,-3.2985,-3.3005,-3.2973,-3.297,-3.2965,-3.2963,-3.2947,-3.2949,-3.2949,-3.2982,-3.2934,-3.2935,-3.2936,-3.2937,-3.3054,-3.3056,0,0,0,0,0,0,-3.3022,-3.3018,-3.3033,-3.3032,-3.3004,-3.2991,-3.2987,-3.2994,-3.2973,-3.2968,-3.2965,-3.296,-3.2948,-3.2948,-3.2948,-3.3007,-3.2936,-3.2937,-3.2938,-3.3052,-3.3054,-3.3057,0,0,0,0,0,0,-3.3022,-3.3024,-3.3034,-3.3024,-3.3023,-3.2993,-3.3001,-3.2995,-3.2997,-3.297,-3.2964,-3.2973,-3.2946,-3.2946,-3.2975,-3.3005,-3.2937,-3.2939,-3.3049,-3.3053,-3.3056,-3.3126,0,0,0,0,0,0,-3.3022,-3.3025,-3.3045,-3.3025,-3.3024,-3.3061,-3.3003,-3.2996,-3.2999,-3.2992,-3.2975,-3.297,-3.2944,-3.2973,-3.2976,-3.3006,-3.294,-3.3046,-3.3051,-3.3055,-3.3121,-3.3132,-3.3141,0,0,0,0,0,-3.3021,-3.3066,-3.3046,-3.3048,-3.3049,-3.3063,-3.3063,-3.3032,-3.3002,-3.3021,-3.3004,-3.2971,-3.3002,-3.2977,-3.2979,-3.301,-3.3044,-3.3049,-3.3054,-3.3117,-3.313,-3.3141,0,0,0,0,0,0,-3.3091,-3.3063,-3.304,-3.308,-3.3074,-3.3051,-3.3075,-3.3047,-3.305,-3.3043,-3.3005,-3.3002,-3.3035,-3.3026,-3.2998,-3.3059,-3.3017,-3.3023,-3.3064,-3.3076,-3.3086,-3.3086,-3.2941,0,0,0,0,0,-3.3111,-3.3125,-3.3099,-3.3137,-3.3135,-3.3106,-3.3111,-3.3088,-3.308,-3.3077,-3.3062,-3.3056,-3.3063,-3.307,-3.3076,-3.312,-3.3114,-3.3143,-3.3153,-3.3161,-3.3166,-3.3186,-3.3197,-3.3074,-3.3074,-3.3074,0,0,-3.3152,-3.3139,-3.315,-3.315,-3.3143,-3.3157,-3.3104,-3.3122,-3.3132,-3.308,-3.3104,-3.3093,-3.3084,-3.312,-3.3135,-3.3113,-3.3199,-3.3168,-3.3174,-3.3175,-3.3192,-3.3204,-3.3214,-3.3078,-3.3077,-3.3077,0,0,-3.3234,-3.3227,-3.3255,-3.3249,-3.3238,-3.3219,-3.3226,-3.3207,-3.3197,-3.3222,-3.3182,-3.3194,-3.3209,-3.3203,-3.3202,-3.3281,-3.325,-3.3284,-3.3335,-3.3355,-3.3365,-3.3373,-3.3399,-3.3409,-3.329,-3.329,-3.329,0,-3.3287,-3.3307,-3.3274,-3.3293,-3.3294,-3.3248,-3.3276,-3.3271,-3.3264,-3.3265,-3.3241,-3.3258,-3.3249,-3.3281,-3.33,-3.3302,-3.3307,-3.3285,-3.3366,-3.3374,-3.3382,-3.3405,-3.3415,-3.3294,-3.3294,-3.3293,-3.3293,0,-3.337,-3.3385,-3.341,-3.3402,-3.3406,-3.343,-3.34,-3.3408,-3.3385,-3.3367,-3.3392,-3.3379,-3.338,-3.3387,-3.3365,-3.3416,-3.3402,-3.3373,-3.333,-3.3398,-3.3419,-3.3429,-3.33,-3.3298,-3.3297,-3.3296,0,0,-3.3495,-3.3468,-3.3478,-3.3473,-3.3457,-3.3468,-3.3489,-3.349,-3.3497,-3.3493,-3.3509,-3.3523,-3.3495,-3.3494,-3.3471,-3.3489,-3.3549,-3.3457,-3.3456,-3.3472,-3.3601,-3.3621,-3.3632,-3.3529,-3.3531,-3.3532,-3.3601,0,-3.357,-3.3604,-3.3575,-3.3615,-3.3626,-3.3583,-3.3601,-3.3593,-3.3578,-3.3585,-3.3568,-3.3577,-3.3542,-3.354,-3.3556,-3.3538,-3.3574,-3.3533,-3.3542,-3.3542,-3.3542,-3.3644,-3.3665,-3.3731,-3.361,-3.3611,-3.3612,0,-3.3662,-3.3661,-3.3702,-3.3682,-3.3686,-3.3703,-3.3701,-3.3709,-3.3699,-3.3686,-3.3685,-3.3656,-3.3675,-3.3635,-3.3659,-3.3632,-3.3634,-3.3626,-3.3627,-3.3625,-3.3579,-3.3641,-3.3751,-3.376,-3.3626,-3.3624,-3.3623,0,-3.3745,-3.3755,-3.3779,-3.3777,-3.3756,-3.3768,-3.376,-3.3748,-3.375,-3.3748,-3.3748,-3.375,-3.375,-3.3751,-3.3723,-3.3696,-3.3749,-3.3707,-3.3738,-3.3738,-3.3749,-3.3748,-3.3858,-3.3755,-3.3755,-3.3755,-3.3755,0,-3.383,-3.3856,-3.3816,-3.3831,-3.3858,-3.3825,-3.3852,-3.384,-3.3829,-3.384,-3.3803,-3.3815,-3.3778,-3.3785,-3.3764,-3.3786,-3.3787,-3.3776,-3.3769,-3.3777,-3.3778,-3.3776,-3.377,-3.3757,-3.3757,-3.3756,-3.3756,0,-3.3926,-3.3901,-3.3924,-3.3902,-3.3897,-3.3917,-3.3898,-3.391,-3.3892,-3.3907,-3.3908,-3.388,-3.3886,-3.3859,-3.3861,-3.3847,-3.3878,-3.3866,-3.3881,-3.3876,-3.3907,-3.3904,-3.4017,-3.4029,-3.3922,-3.3923,-3.3924,0,-3.3981,-3.3999,-3.3979,-3.3983,-3.3976,-3.3985,-3.3986,-3.3954,-3.3957,-3.3946,-3.396,-3.3963,-3.3964,-3.3976,-3.3955,-3.3956,-3.3941,-3.3981,-3.3941,-3.3948,-3.3938,-3.3936,-3.3937,-3.3988,-3.399,-3.3991,-3.3992,0,-3.408,-3.4066,-3.4069,-3.4068,-3.4071,-3.4069,-3.4064,-3.407,-3.4035,-3.404,-3.4045,-3.4046,-3.4047,-3.405,-3.4047,-3.4038,-3.4008,-3.4005,-3.4011,-3.4018,-3.4025,-3.4019,-3.3901,-3.4002,-3.4001,-3.4,-3.3999,-3.3999,-3.4155,-3.4168,-3.4155,-3.4159,-3.4152,-3.4148,-3.4158,-3.4141,-3.4145,-3.4143,-3.4125,-3.4134,-3.4122,-3.4114,-3.4107,-3.4113,-3.4094,-3.4105,-3.4107,-3.4109,-3.4113,-3.4027,-3.4113,-3.4113,-3.4113,-3.4112,-3.4112,0,-3.4249,-3.4238,-3.4243,-3.4236,-3.424,-3.4213,-3.4206,-3.421,-3.4218,-3.421,-3.4211,-3.4216,-3.4219,-3.4199,-3.4198,-3.4207,-3.4193,-3.4207,-3.4205,-3.4203,-3.4132,-3.4124,-3.4218,-3.4218,-3.4218,-3.4218,-3.4218,-3.4218,-3.4298,-3.4318,-3.4303,-3.4319,-3.4308,-3.4316,-3.4314,-3.431,-3.4302,-3.431,-3.4312,-3.4299,-3.4285,-3.4283,-3.4284,-3.4278,-3.4278,-3.4296,-3.4285,-3.4219,-3.4208,-3.4198,-3.4191,-3.4297,-3.4297,-3.4355,-3.4356,-3.4356]},{"header":{"parameterUnit":"m.s-1","parameterCategory":1,"la1":30.2991,"la2":30.254,"lo1":-89.0895,"lo2":-89.0444,"dy":0.0017,"dx":0.0017,"nx":28,"ny":28,"refTime":"2025-08-04T03:00:00:Z","depth":0,"parameterNumber":3,"parameterNumberName":"V-component_of_WINDS"},"data":[0,0,0,0,0,0,0,0,0,0,0,0,0,0,0,0,0,0,0,0,0,0,0,0,0,0,0,0,0,0,0,0,0,0,0,0,0,0,0,0,0,0,0,0,0,0,0,0,0,0,0,0,0,0,0,0,0,0,-0.7863,-0.7864,0,-0.7991,-0.7992,-0.7994,-0.8074,-0.8074,-0.8075,-0.8075,-0.8206,-0.8209,-0.8212,0,0,0,0,0,0,0,0,0,0,0,0,0,-0.7688,-0.7691,-0.7863,-0.7865,-0.7866,-0.7991,-0.7992,-0.7994,-0.8074,-0.8074,-0.8075,-0.8075,-0.8205,-0.8209,-0.8213,0,0,0,0,0,0,0,0,0,0,0,0,0,-0.7785,-0.7692,-0.7863,-0.7921,-0.7927,-0.799,-0.7992,-0.7995,-0.8074,-0.8074,-0.8075,-0.8076,-0.8204,-0.8209,-0.8213,-0.8228,0,0,-0.8227,-0.8229,0,0,0,0,0,0,0,0,-0.7779,-0.7791,-0.7911,-0.7917,-0.7924,-0.8017,-0.7979,-0.8073,-0.8074,-0.8018,-0.8075,-0.8076,-0.8143,-0.8153,-0.8175,-0.8234,-0.824,-0.8228,-0.823,-0.8232,-0.8234,0,0,0,0,0,0,0,-0.7772,-0.7786,-0.7914,-0.7912,-0.7921,-0.7941,-0.7955,-0.7997,-0.8075,-0.8023,-0.8029,-0.8043,-0.8147,-0.817,-0.8179,-0.8242,-0.8228,-0.8232,-0.8234,-0.8236,-0.8319,-0.8319,0,0,0,0,0,0,-0.7756,-0.778,-0.791,-0.7917,-0.7852,-0.7943,-0.7959,-0.7987,-0.8075,-0.8089,-0.8042,-0.8046,-0.8162,-0.8173,-0.8184,-0.8206,-0.8232,-0.8237,-0.8239,-0.832,-0.8319,-0.8318,0,0,0,0,0,0,-0.7752,-0.7767,-0.7904,-0.785,-0.7869,-0.7946,-0.7975,-0.7989,-0.8013,-0.809,-0.8104,-0.8052,-0.8163,-0.8177,-0.8216,-0.8212,-0.8239,-0.8243,-0.832,-0.8319,-0.8319,-0.8252,0,0,0,0,0,0,-0.7747,-0.7765,-0.7772,-0.785,-0.7872,-0.7935,-0.7975,-0.7991,-0.802,-0.8027,-0.8103,-0.8116,-0.8165,-0.8209,-0.8221,-0.8219,-0.8247,-0.8321,-0.832,-0.8319,-0.8255,-0.8249,-0.8244,0,0,0,0,0,-0.774,-0.7748,-0.7771,-0.7787,-0.7882,-0.7934,-0.7947,-0.8003,-0.802,-0.8027,-0.8076,-0.8113,-0.8211,-0.8212,-0.8226,-0.8226,-0.8322,-0.832,-0.8319,-0.8257,-0.825,-0.8244,0,0,0,0,0,0,-0.7668,-0.7759,-0.7786,-0.782,-0.7868,-0.7948,-0.7958,-0.7994,-0.8039,-0.8043,-0.8111,-0.8127,-0.8159,-0.8197,-0.8197,-0.8244,-0.827,-0.8272,-0.8219,-0.8212,-0.8207,-0.8197,-0.825,0,0,0,0,0,-0.7655,-0.769,-0.7769,-0.7791,-0.7814,-0.7881,-0.7907,-0.7946,-0.7999,-0.802,-0.8072,-0.8123,-0.8165,-0.8191,-0.8234,-0.8261,-0.8278,-0.8267,-0.8262,-0.8257,-0.8257,-0.8273,-0.8269,-0.8314,-0.8314,-0.8314,0,0,-0.7631,-0.7685,-0.7703,-0.7777,-0.782,-0.7854,-0.7898,-0.7934,-0.796,-0.8026,-0.8065,-0.8105,-0.8166,-0.8199,-0.8216,-0.8231,-0.8248,-0.8255,-0.8251,-0.8254,-0.8271,-0.8267,-0.8263,-0.8313,-0.8313,-0.8314,0,0,-0.7603,-0.7648,-0.7671,-0.7712,-0.7776,-0.7821,-0.7826,-0.79,-0.7929,-0.797,-0.8019,-0.8052,-0.8123,-0.8164,-0.8194,-0.818,-0.8216,-0.8193,-0.8164,-0.8178,-0.8175,-0.8172,-0.8166,-0.8164,-0.8193,-0.8193,-0.8193,0,-0.7564,-0.7618,-0.7678,-0.771,-0.7741,-0.7801,-0.7825,-0.7862,-0.7936,-0.7956,-0.7972,-0.8061,-0.8107,-0.8149,-0.8146,-0.8169,-0.8176,-0.8184,-0.8171,-0.8168,-0.8167,-0.8162,-0.816,-0.8189,-0.819,-0.819,-0.819,0,-0.7567,-0.7604,-0.7614,-0.7684,-0.7716,-0.7743,-0.7807,-0.7832,-0.7868,-0.7911,-0.7952,-0.8008,-0.8063,-0.8076,-0.8112,-0.8124,-0.8131,-0.8158,-0.8185,-0.8158,-0.8155,-0.8153,-0.8184,-0.8186,-0.8187,-0.8188,0,0,-0.7497,-0.7599,-0.7602,-0.7633,-0.7708,-0.7737,-0.7767,-0.782,-0.784,-0.789,-0.7916,-0.7974,-0.7999,-0.8033,-0.8074,-0.8087,-0.8072,-0.8112,-0.8115,-0.8102,-0.8087,-0.8065,-0.8062,-0.8096,-0.8096,-0.8096,-0.8081,0,-0.748,-0.7536,-0.759,-0.7627,-0.7661,-0.7719,-0.7745,-0.7793,-0.7834,-0.7869,-0.7915,-0.7954,-0.7985,-0.8006,-0.8021,-0.807,-0.8069,-0.8072,-0.812,-0.8121,-0.8102,-0.8061,-0.8039,-0.8022,-0.8081,-0.8081,-0.808,0,-0.7467,-0.7513,-0.7552,-0.7623,-0.7639,-0.7661,-0.7714,-0.7747,-0.7803,-0.7831,-0.7869,-0.7912,-0.7946,-0.7969,-0.8017,-0.8017,-0.804,-0.8067,-0.8068,-0.8074,-0.8098,-0.8065,-0.8019,-0.8016,-0.8079,-0.8079,-0.8079,0,-0.741,-0.7482,-0.7515,-0.7541,-0.7624,-0.7638,-0.7673,-0.7729,-0.7758,-0.7804,-0.7823,-0.7872,-0.7899,-0.7937,-0.7991,-0.8004,-0.8032,-0.8061,-0.8057,-0.8055,-0.8059,-0.8058,-0.8015,-0.8076,-0.8076,-0.8076,-0.8076,0,-0.7385,-0.7407,-0.7491,-0.7511,-0.7537,-0.7599,-0.7623,-0.7664,-0.7713,-0.7742,-0.7795,-0.7821,-0.7893,-0.7927,-0.797,-0.8002,-0.8014,-0.8038,-0.8049,-0.8033,-0.8029,-0.8048,-0.805,-0.8075,-0.8075,-0.8075,-0.8075,0,-0.7326,-0.7383,-0.7423,-0.7498,-0.7517,-0.7533,-0.7597,-0.7619,-0.7662,-0.7698,-0.771,-0.7779,-0.7822,-0.7881,-0.7942,-0.7971,-0.7997,-0.8015,-0.7977,-0.7984,-0.7976,-0.7975,-0.7942,-0.7941,-0.8002,-0.8002,-0.8001,0,-0.7305,-0.7323,-0.74,-0.7423,-0.7456,-0.7493,-0.7522,-0.7583,-0.7611,-0.7676,-0.7689,-0.7736,-0.7777,-0.7843,-0.7898,-0.7945,-0.7964,-0.795,-0.7972,-0.7954,-0.7963,-0.796,-0.7962,-0.7944,-0.7943,-0.7942,-0.7941,0,-0.7262,-0.7289,-0.7329,-0.7378,-0.7411,-0.7453,-0.7497,-0.7513,-0.7584,-0.7613,-0.7657,-0.7689,-0.7751,-0.7797,-0.7851,-0.7887,-0.7925,-0.7934,-0.7935,-0.7918,-0.7895,-0.7906,-0.7962,-0.7934,-0.7935,-0.7935,-0.7936,-0.7936,-0.7221,-0.7239,-0.7296,-0.7338,-0.7378,-0.7418,-0.7441,-0.7488,-0.7526,-0.7581,-0.7615,-0.7658,-0.7713,-0.7789,-0.7824,-0.7858,-0.7873,-0.7875,-0.7876,-0.7875,-0.7869,-0.789,-0.7868,-0.7868,-0.7868,-0.7869,-0.7869,0,-0.718,-0.7219,-0.7257,-0.7317,-0.735,-0.7383,-0.7434,-0.7459,-0.7496,-0.7543,-0.7582,-0.7633,-0.7677,-0.7736,-0.7784,-0.78,-0.7819,-0.781,-0.7809,-0.7817,-0.7853,-0.7846,-0.7794,-0.7794,-0.7794,-0.7794,-0.7794,-0.7794,-0.7162,-0.7194,-0.7228,-0.728,-0.732,-0.7361,-0.7387,-0.7424,-0.7462,-0.7516,-0.7553,-0.7591,-0.7643,-0.7696,-0.7738,-0.7754,-0.7769,-0.7755,-0.7776,-0.7808,-0.7815,-0.7821,-0.7815,-0.7758,-0.7758,-0.7737,-0.7737,-0.7737]}]]